******************************************************************************* JPL/HORIZONS 119P/Parker-Hartley 2025-Dec-12 18:01:52 Rec #:90001016 (+COV) Soln.date: 2024-Sep-01_19:42:26 # obs: 3237 (1986-2024) IAU76/J2000 helio. ecliptic osc. elements (au, days, deg., period=Julian yrs): EPOCH= 2457254.5 ! 2015-Aug-20.0000000 (TDB) RMSW= n.a. EC= .2959402723151744 QR= 3.023930771303467 TP= 2456751.4599125907 OM= 243.6781544985683 W= 181.859700412578 IN= 5.183509143535373 A= 4.294991820150148 MA= 55.70102124911207 ADIST= 5.566052868996829 PER= 8.9012646558482 N= .110728792 ANGMOM= .034053351 DAN= 5.56482 DDN= 3.02429 L= 65.5302549 B= -.1679871 MOID= 2.03700995 TP= 2014-Apr-03.9599125907 Comet physical (GM= km^3/s^2; RAD= km): GM= n.a. RAD= n.a. M1= 9.6 M2= 13.9 k1= 13. k2= 5. PHCOF= .030 Comet non-gravitational force model (AMRAT=m^2/kg;A1-A3=au/d^2;DT=days;R0=au): AMRAT= 0. DT= -133.2145 A1= -2.249237537384E-8 A2= 8.919359445572E-9 A3= 2.472348809242E-9 Standard model: ALN= .1112620426 NK= 4.6142 NM= 2.15 NN= 5.093 R0= 2.808 COMET comments 1: soln ref.= JPL#122, data arc: 1986-09-29 to 2024-05-06 2: k1=13., k2=5., phase coef.=0.03; ******************************************************************************* ******************************************************************************* Ephemeris / WWW_USER Fri Dec 12 18:01:52 2025 Pasadena, USA / Horizons ******************************************************************************* Target body name: 119P/Parker-Hartley {source: JPL#122} Center body name: Earth (399) {source: DE441} Center-site name: GEOCENTRIC ******************************************************************************* Start time : A.D. 2030-Jan-20 00:00:00.0000 UT Stop time : A.D. 2030-Jan-21 00:00:00.0000 UT Step-size : 180 minutes ******************************************************************************* Target pole/equ : undefined Target radii : undefined Center geodetic : 0.0, 0.0, -6378.137 {E-lon(deg),Lat(deg),Alt(km)} Center cylindric: 0.0, 0.0, 0.0 {E-lon(deg),Dxy(km),Dz(km)} Center pole/equ : ITRF93 {East-longitude positive} Center radii : 6378.137, 6378.137, 6356.752 km {Equator_a, b, pole_c} Target primary : Sun Vis. interferer : MOON (R_eq= 1737.400) km {source: DE441} Rel. light bend : Sun {source: DE441} Rel. lght bnd GM: 1.3271E+11 km^3/s^2 Small-body perts: Yes {source: SB441-N16} Atmos refraction: NO (AIRLESS) RA format : HMS Time format : CAL Calendar mode : Mixed Julian/Gregorian EOP file : eop.251212.p260310 EOP coverage : DATA-BASED 1962-JAN-20 TO 2025-DEC-12. PREDICTS-> 2026-MAR-09 Units conversion: 1 au= 149597870.700 km, c= 299792.458 km/s, 1 day= 86400.0 s Table cut-offs 1: Elevation (-90.0deg=NO ),Airmass (>38.000=NO), Daylight (NO ) Table cut-offs 2: Solar elongation ( 0.0,180.0=NO ),Local Hour Angle( 0.0=NO ) Table cut-offs 3: RA/DEC angular rate ( 0.0=NO ) ******************************************************************************* Initial IAU76/J2000 heliocentric ecliptic osculating elements (au, days, deg.): EPOCH= 2457254.5 ! 2015-Aug-20.0000000 (TDB) RMSW= n.a. EC= .2959402723151744 QR= 3.023930771303467 TP= 2456751.4599125907 OM= 243.6781544985683 W= 181.859700412578 IN= 5.183509143535373 Equivalent ICRF heliocentric cartesian coordinates (au, au/d): X=-3.504554149819234E+00 Y= 1.672591234906679E+00 Z= 3.413356490658923E-01 VX=-6.071030776272157E-03 VY=-6.135976160411147E-03 VZ=-2.900900973409636E-03 Comet physical (GM= km^3/s^2; RAD= km): GM= n.a. RAD= n.a. M1= 9.6 M2= 13.9 k1= 13. k2= 5. PHCOF= .030 Comet non-gravitational force model (AMRAT=m^2/kg;A1-A3=au/d^2;DT=days;R0=au): AMRAT= 0. DT= -133.2145 A1= -2.249237537384E-8 A2= 8.919359445572E-9 A3= 2.472348809242E-9 Standard model: ALN= .1112620426 NK= 4.6142 NM= 2.15 NN= 5.093 R0= 2.808 ******************************************************************************* Date__(UT)__HR:MN r rdot ************************************************** $$SOE 2030-Jan-20 00:00 2.338959083956 -0.0046043 2030-Jan-20 03:00 2.338958915055 -0.0000751 2030-Jan-20 06:00 2.338959073108 0.0044540 2030-Jan-20 09:00 2.338959558112 0.0089831 2030-Jan-20 12:00 2.338960370070 0.0135123 2030-Jan-20 15:00 2.338961508978 0.0180414 2030-Jan-20 18:00 2.338962974838 0.0225705 2030-Jan-20 21:00 2.338964767647 0.0270996 2030-Jan-21 00:00 2.338966887404 0.0316286 $$EOE ******************************************************************************* Column meaning: TIME Times PRIOR to 1962 are UT1, a mean-solar time closely related to the prior but now-deprecated GMT. Times AFTER 1962 are in UTC, the current civil or "wall-clock" time-scale. UTC is kept within 0.9 seconds of UT1 using integer leap-seconds for 1972 and later years. Conversion from the internal Barycentric Dynamical Time (TDB) of solar system dynamics to the non-uniform civil UT time-scale requested for output has not been determined for UTC times after the next July or January 1st. Therefore, the last known leap-second is used as a constant over future intervals. Time tags refer to the UT time-scale conversion from TDB on Earth regardless of observer location within the solar system, although clock rates may differ due to the local gravity field and no analog to "UT" may be defined for that location. Any 'b' symbol in the 1st-column denotes a B.C. date. First-column blank (" ") denotes an A.D. date. CALENDAR SYSTEM Mixed calendar mode was active such that calendar dates after AD 1582-Oct-15 (if any) are in the modern Gregorian system. Dates prior to 1582-Oct-5 (if any) are in the Julian calendar system, which is automatically extended for dates prior to its adoption on 45-Jan-1 BC. The Julian calendar is useful for matching historical dates. The Gregorian calendar more accurately corresponds to the Earth's orbital motion and seasons. A "Gregorian-only" calendar mode is available if such physical events are the primary interest. NOTE: "n.a." in output means quantity "not available" at the print-time. 'r rdot' = The Sun's apparent range ("r", light-time aberrated) and range-rate ("rdot") relative to the target center, as seen by the observer. A positive "rdot" means the target center was moving away from the Sun, negative means moving toward the Sun. Units: AU and KM/S Computations by ... Solar System Dynamics Group, Horizons On-Line Ephemeris System 4800 Oak Grove Drive, Jet Propulsion Laboratory Pasadena, CA 91109 USA General site: https://ssd.jpl.nasa.gov/ Mailing list: https://ssd.jpl.nasa.gov/email_list.html System news : https://ssd.jpl.nasa.gov/horizons/news.html User Guide : https://ssd.jpl.nasa.gov/horizons/manual.html Connect : browser https://ssd.jpl.nasa.gov/horizons/app.html#/x API https://ssd-api.jpl.nasa.gov/doc/horizons.html command-line telnet ssd.jpl.nasa.gov 6775 e-mail/batch https://ssd.jpl.nasa.gov/ftp/ssd/horizons_batch.txt scripts https://ssd.jpl.nasa.gov/ftp/ssd/SCRIPTS Author : Jon.D.Giorgini@jpl.nasa.gov ******************************************************************************* !$$SOF COMMAND = '119P' QUANTITIES = '19' START_TIME = '2030-Jan-20' STEP_SIZE = '3 hours' STOP_TIME = '2030-Jan-21'